Regional Weather Roundup
Issued by NWS

Home | Current Version | Previous Version | Text Only | Print | Product List | Glossary Off
Versions: 1 2 3 4 5 6 7 8 9 10 11 12 13 14 15 16 17 18 19 20 21 22 23 24 25 26 27 28 29 30 31 32 33 34 35 36 37 38 39 40 41 42 43 44 45 46 47 48 49 50

000
ASUS43 KDMX 301908
RWRIA

WEATHER ROUNDUP FOR IOWA
NATIONAL WEATHER SERVICE DES MOINES IA
200 PM CDT TUE AUG 30 2016

NOTE: "FAIR" INDICATES FEW OR NO CLOUDS BELOW 12,000 FEET WITH NO
SIGNIFICANT WEATHER AND/OR OBSTRUCTIONS TO VISIBILITY.

* - THESE STATIONS ARE NOT NWS STATIONS...THUS NOT UNDER NWS
QUALITY CONTROL.  THEY ALSO DO NOT REPORT WEATHER SUCH
AS PRECIPITATION OR FOG.

IAZ001>003-012>014-020>022-031>034-043>046-302000-
   NORTHWEST IOWA

CITY           SKY/WX    TMP DP  RH WIND       PRES   REMARKS
CARROLL *      CLOUDY    77  68  73 N7        30.19S
CHEROKEE *     CLOUDY    79  69  71 NW5       30.19S HX  82
DENISON *      CLOUDY    77  68  73 W5        30.17S
LE MARS *      CLOUDY    82  68  61 SW6       30.19F HX  85
ORANGE CITY *  CLOUDY    79  70  73 NW6       30.20F HX  81
SHELDON *      MOSUNNY   79  72  78 N8        30.20S HX  82
SIOUX CITY     CLOUDY    80  68  66 W5        30.18F HX  83
SPENCER        CLOUDY    79  67  66 NE8       30.21S HX  81
STORM LAKE *     N/A     77  68  73 CALM      30.21R
$$

IAZ055>058-069>071-079>083-090>094-302000-
   SOUTHWEST IOWA

CITY           SKY/WX    TMP DP  RH WIND       PRES   REMARKS
ATLANTIC *     CLOUDY    77  70  78 S8        30.16F
AUDUBON *      CLOUDY    75  70  83 N6        30.20R
CLARINDA *       N/A     75  72  88 MISG      30.19F
COUNCIL BLFS *   N/A     75  68  78 VRB6      30.18F
CRESTON *      PTSUNNY   75  72  88 W7        30.18F
HARLAN  *      CLOUDY    77  70  78 SW5       30.21S
LAMONI         LGT RAIN  74  72  93 W5        30.16F
RED OAK *      CLOUDY    77  70  78 CALM      30.17F
SHENANDOAH *   CLOUDY   N/A N/A N/A CALM      30.18F
$$

IAZ047>049-059>061-072>074-084-302000-
   CENTRAL IOWA

CITY           SKY/WX    TMP DP  RH WIND       PRES   REMARKS
AMES           CLOUDY    78  71  79 NW9       30.17S HX  80
ANKENY *         N/A    N/A N/A N/A MISG        N/A
BOONE *        CLOUDY    75  70  83 N9        30.17F
CHARITON *       N/A     77  73  88 MISG      30.16R
DES MOINES     CLOUDY    81  70  69 N6        30.15F HX  84
GRINNELL*      CLOUDY    79  71  74 CALM      30.17S HX  82
KNOXVILLE *    CLOUDY    79  70  73 N6        30.14F HX  81
MARSHALLTOWN   PTSUNNY   79  72  79 NW7       30.15F HX  82
NEWTON *       PTSUNNY   79  73  83 N5        30.15F HX  82
PERRY *        LGT RAIN  76  72  86 N3        30.19R
$$

IAZ004>006-015-016-023>025-035-036-302000-
   NORTH CENTRAL IOWA

CITY           SKY/WX    TMP DP  RH WIND       PRES   REMARKS
ALGONA *       MOSUNNY   75  66  73 N10       30.21S
ESTHERVILLE    PTSUNNY   76  68  76 VRB7      30.21F
FORT DODGE *   CLOUDY    75  68  78 NE7       30.20S
MASON CITY     MOSUNNY   77  66  68 N10       30.20F
FOREST CITY *    N/A     73  64  73 N10       30.19F
WEBSTER CITY * PTSUNNY   75  72  88 N8        30.17S
IOWA FALLS *   CLOUDY    77  71  81 NW10      30.19S
$$

IAZ007>011-017>019-026>030-037>042-050>054-066-302000-
   NORTHEAST IOWA

CITY           SKY/WX    TMP DP  RH WIND       PRES   REMARKS
CEDAR RAPIDS   PTSUNNY   82  74  76 VRB3      30.13F HX  88
CHARLES CITY * CLOUDY    79  70  73 NW9       30.18S HX  81
CLINTON *      CLOUDY    81  72  74 SW6       30.12F HX  85
DECORAH *      CLOUDY    79  70  73 NW6       30.15S HX  81
DUBUQUE        MOSUNNY   82  70  66 W8        30.13F HX  86
MONTICELLO *   MOSUNNY   84  72  65 W6        30.12F HX  89
OELWEIN *      CLOUDY    77  72  83 NW7       30.16F
WATERLOO       CLOUDY    79  69  71 NW8       30.14F HX  81
$$

IAZ064-065-067-068-078-302000-
   EAST CENTRAL IOWA

CITY           SKY/WX    TMP DP  RH WIND       PRES   REMARKS
DAVENPORT      MOSUNNY   83  72  69 VRB5      30.12F HX  88
IOWA CITY      CLOUDY    80  72  76 SW7       30.15F HX  84
MT. PLEASANT * CLOUDY    81  74  78 CALM      30.13F HX  86
QUAD CITIES    CLOUDY    82  71  69 NW8       30.11F HX  86
$$

IAZ062-063-075>077-085>089-095>099-302000-
   SOUTHEAST IOWA

CITY           SKY/WX    TMP DP  RH WIND       PRES   REMARKS
BURLINGTON     CLOUDY    78  73  84 VRB3      30.12F HX  81
FAIRFIELD *    CLOUDY    75  72  88 W5        30.14F
FORT MADISON * CLOUDY    79  72  78 CALM      30.13F HX  82
KEOKUK *       CLOUDY    77  73  88 SW3       30.12F
OSKALOOSA *    CLOUDY    74  71  88 CALM      30.15F
CENTERVILLE *    N/A     81  72  74 CALM      30.16F HX  84
OTTUMWA        CLOUDY    76  70  82 N3        30.15S
WASHINGTON *   CLOUDY    79  73  83 W5        30.15F HX  82
$$

ABBREVIATIONS USED IN REMARKS
   TC - TEMPERATURES IN CELSIUS
  WCI - WIND CHILL INDEX
   HX - HEAT INDEX
  VSB - VISIBILITY
$$




USA.gov is the U.S. government's official web portal to all federal, state and local government web resources and services.